Location: Unspecified
(0.0000°N, 0.0000°E)
Time: 13:34:07
(UTC+00:00)

RS-15 - Pass Details

Date: 12 December 2017
Orbit: 1889 x 2156 km, 64.8° (Epoch: 23 April)

Event Time Altitude Azimuth Distance (km) Brightness Sun altitude
Exits shadow 01:06:20 22° 121° (ESE) 3,399 9.4 -60.9°
Drops below altitude 10° 01:09:51 10° 134° (SE) 4,274 10.1 -60.4°
Sets 01:13:22 0° 141° (SE) 5,267 10.8 -59.9°
